STARLINK-31892, 59853

Orbit data source: Space-Track

STARLINK-31892, 59853 is a payload satellite owned by SpaceX/Seattle (US) in LEO that was launched on Thu, 23 May 2024 UTC via an FALCON 9 launch vehicle from the Air Force Eastern Test Range (AFETR). Payload-class satellites include a variety of spacecraft equipped with specific instruments for various scientific and technological missions. These include communications satellites like Starlink; space stations such as the ISS; scientific satellites like the Hubble; Earth observation satellites from companies like Planet Labs, Umbra, and HawkEye 360; GPS; miniature CubeSats for education and research; and military/defense satellites.

Loading next visibility...
Identifier
59853, 2024-097U
Orbit
LEO
Country
Flag of USUS
Related business
Manufacturer
SpaceX/Seattle
Mission
Operational Commercial Communications
Bus & Motor
STARLINK V2M, Unknown motor
Mass
730 kg wet, ~700 kg dry
Launch date (UTC)
2024-05-23 (2 years ago)
Launch vehicle
FALCON 9
Launch site
Air Force Eastern Test Range (AFETR)
Object type
Payload
Rocket body
Debris
Shape & HBR
Box + 2 Pan, 17.7 m
Radar Cross Section
33.884 m², Large (>1 m²)

Expand to show TLE details & history
Last TLE update: 2 days ago

TLE from 2 days ago
0 STARLINK-31892
1 59853U 24097U   26171.01547083  .00000171  00000-0  15726-4 0  9991
2 59853  43.0046  56.6995 0001352 267.8654  92.2043 15.27578272117564
Epoch: 2026-06-20T00:22Z
TLE epoch observation values (Epoch: 2026-06-20T00:22:16.679Z)
Latitude
-0.00002°
Longitude
142.89382°
Altitude
482.866 km
Speed
7.626 km/s
True Right ascension
03h 46m 47s
True Declination
0° 00' 00"
Sunlit
Object was in daylight at epoch
Visualization orbit readout
Latitude
Unknown
Longitude
Unknown
Altitude
Unknown
Speed
Unknown
Apparent Right ascension
Unknown
Apparent Declination
Unknown
Sunlit
N/A
Visualization observer readout
Local Sidereal Time
21:28:42
Azimuth
Unknown
Elevation
Unknown
Doppler factor
Unknown
Orbital elements
Apogee altitude
485.927 km
Perigee altitude
484.071 km
Semi-major axis
6,863.136 km
Eccentricity
0.00014
Inclination
43.0046°
RAAN
56.6995°
Arg. of periapsis
267.8654°
True anomaly
92.21978°
Mean anomaly
92.2043°
Eccentric anomaly
92.21204°
Mean motion
3.81733 °/min
Orbital period
94.31 mins
BSTAR
0.000015726
Loading maneuver chart data...
Computing Atmospheric mass density...
Loading historical data...
Loading historical data...
Loading historical data...
Loading historical data...
Loading historical data...
Loading historical data...
Loading historical data...

Documentation

Showing up to 5 results
|